Flag for China Weather past 2 weeks in Guangzhou, Guangdong, China

Now
52 °F

Passing clouds.


Feels Like: 49 °F
Forecast: 49 / 68 °F
Wind: 8 mph from North

Location: Canton Airport

Current Time: Jan 30, 2015 at 9:04:44 AM

Latest Report: Jan 30, 2015 at 8:30 AM


Visibility: N/A

Pressure: 30.24 "Hg

Humidity: 72%

Dew point: 43 °F

Location of GuangzhouLocation

Historic Weather in Guangzhou — Graph

°F

Guangzhou temperature yesterday

Maximum temperature yesterday: 72 °F (at 2:30 PM)
Minimum temperature yesterday: 57 °F (at 11:30 PM)
Average temperature yesterday: 64 °F

Past Weeks' High & Low Weather Summary

 TemperatureHumidityPressure
High75 °F (Jan 21, 2:00 PM)100% (Jan 26, 2:30 AM)30.36 "Hg (Jan 26, 2:30 AM)
Low46 °F (Jan 15, 8:00 AM)20% (Jan 22, 2:30 PM)29.95 "Hg (Jan 27, 4:00 PM)
Average62 °F64%30.13 "Hg
* Reported Jan 15 8:00 AM — Jan 30 8:00 AM, Guangzhou, Weather by CustomWeather, © 2014

Note: Actual official high and low records may vary slightly from our data, if they occured in-between our weather recording intervals... More about our weather records

Advertising

Guangzhou weather history for previous 24 hours

 ConditionsComfort  
Time TempWeatherWind HumidityBarometerVisibility
8:00 AM
Jan 30
52 °FSunny.8 mph72%30.24 "Hg10 mi
7:30 AM52 °FSunny.8 mph72%30.21 "Hg10 mi
7:00 AM52 °FClear.8 mph72%30.21 "Hg10 mi
6:30 AM52 °FClear.10 mph72%30.18 "Hg10 mi
6:00 AM52 °FClear.13 mph72%30.18 "Hg10 mi
5:30 AM52 °FClear.13 mph77%30.15 "Hg10 mi
5:00 AM52 °FClear.10 mph77%30.15 "Hg10 mi
4:30 AM52 °FClear.10 mph77%30.15 "Hg10 mi
4:00 AM52 °FClear.8 mph77%30.15 "Hg10 mi
3:30 AM52 °FClear.10 mph77%30.12 "Hg10 mi
3:00 AM52 °FClear.13 mph77%30.12 "Hg10 mi
2:30 AM54 °FClear.13 mph72%30.12 "Hg6 mi
2:00 AM54 °FClear.13 mph77%30.12 "Hg6 mi
1:30 AM54 °FClear.10 mph77%30.12 "Hg6 mi
1:00 AM55 °FClear.10 mph77%30.12 "Hg5 mi
12:30 AM55 °FClear.10 mph77%30.12 "Hg5 mi
12:00 AM57 °FClear.10 mph77%30.12 "Hg5 mi
11:30 PM
Jan 29
57 °FClear.13 mph77%30.12 "Hg5 mi
11:00 PM59 °FClear.15 mph72%30.12 "Hg4 mi
10:30 PM61 °FClear.10 mph72%30.12 "Hg4 mi
10:00 PM61 °FClear.13 mph72%30.12 "Hg4 mi
9:30 PM63 °FClear.13 mph73%30.09 "Hg4 mi
9:00 PM64 °FClear.10 mph73%30.09 "Hg4 mi
8:30 PM64 °FClear.8 mph73%30.09 "Hg4 mi
8:00 PM66 °FClear.8 mph68%30.09 "Hg4 mi
7:30 PM68 °FClear.8 mph60%30.09 "Hg4 mi
7:00 PM70 °FClear.3 mph53%30.07 "Hg4 mi
6:30 PM70 °FClear.3 mph53%30.07 "Hg4 mi
6:00 PM70 °FClear.3 mph53%30.07 "Hg4 mi
5:30 PM70 °FClear.3 mph53%30.07 "Hg4 mi
5:00 PM72 °FClear.3 mph50%30.04 "Hg4 mi
4:30 PM72 °FClear.1 mph50%30.04 "Hg4 mi
4:00 PM72 °FClear.No wind50%30.04 "Hg4 mi
3:30 PM72 °FClear.1 mph50%30.04 "Hg4 mi
3:00 PM72 °FClear.1 mph50%30.07 "Hg4 mi
2:30 PM72 °FClear.No wind50%30.07 "Hg4 mi
2:00 PM70 °FClear.1 mph53%30.07 "Hg4 mi
1:30 PM70 °FClear.1 mph53%30.09 "Hg4 mi
1:00 PM68 °FClear.1 mph56%30.09 "Hg4 mi
12:30 PM68 °FClear.1 mph56%30.12 "Hg4 mi
12:00 PM66 °FClear.1 mph60%30.12 "Hg4 mi
11:30 AM64 °FClear.1 mph64%30.15 "Hg4 mi
11:00 AM64 °FHaze.1 mph68%30.15 "Hg3 mi
10:30 AM63 °FHaze.1 mph68%30.15 "Hg3 mi
10:00 AM63 °FHaze.3 mph68%30.15 "Hg3 mi
9:30 AM63 °FHaze.6 mph73%30.12 "Hg3 mi
9:00 AM61 °FFog.6 mph77%30.12 "Hg3 mi
Weather by CustomWeather, © 2014

See weather overviewHow to use our weather pages